Current weather by "City, St" or "zip code"  
 

Current Conditions: Plymouth, Plymouth Municipal Airport, MA

Overcast


62.0 F

Last Updated on May 21 2022, 3:52 am EDT
Humidity: 93%
Wind Speed: S 8.1 mph
Barometer 29.98 in
Dewpoint: 60.1 F
Visibility: 10.00 mi
Precip: --
Heat Index: NA
Wind Chill: 61 F
Current conditions at:

Plymouth, Plymouth Municipal Airport, MA (KPYM)

Lat: 41.90861 Lon: 70.72806

Local Radar Image active severe weather and emergency alerts image image weather storm and storm spotter reports image weather observation monitoring service image
Local
Radar
Active
Alerts
Storm Reports Obs
Monitoring

Sign-up For Email & Text Message Weather Alert Notification Services



Advertise Here

Observation History for Plymouth, Plymouth Municipal Airport, MA


Time Wind
(mph)
Vis
(mi)
Weather Precip (in) Temperature (F) Relative
Humidity
Wind
Chill
(F)
Heat
Index
(F)
Pressure
Air Dwpt altimeter
(in)
sea level
(mb)
Rmks
3:52 am EDT S 8.1 10.00 Overcast -- 62.0 60.1 93% 61 NA 29.98 1015.1
2:52 am EDT S 4.6 10.00 Overcast 00.20 61.0 59.0 93% 61 NA 29.99 1015.5
1:52 am EDT S 6.9 10.00 Light Rain 00.08 60.0 57.9 93% 59 NA 30.00 1016.0
12:52 am EDT N 0.0 7.00 Light Rain Trace 60.0 57.0 90% NA NA 30.04 1017.3
11:52 pm EDT SE 9.2 10.00 Overcast -- 60.0 55.9 86% 59 NA 30.04 1017.2
10:52 pm EDT 5.8 10.00 Overcast -- 59.0 55.0 87% 58 NA 30.04 1017.3
9:52 pm EDT 3.5 10.00 Overcast -- 59.0 54.0 83% NA NA 30.07 1018.3
8:52 pm EDT 4.6 10.00 Mostly Cloudy -- 59.0 53.1 81% 59 NA 30.04 1017.2
7:52 pm EDT 5.8 10.00 Overcast -- 60.0 53.1 78% 60 NA 30.03 1017.0
5:52 pm EDT S 8.1 G 17.3 10.00 A Few Clouds -- 65.0 53.1 66% NA NA 30.02 1016.7
4:52 pm EDT S 8.1 10.00 Fair -- 68.0 54.0 61% NA NA 30.01 1016.3
3:52 pm EDT S 10.4 10.00 Fair -- 71.0 54.0 55% NA NA 30.02 1016.6
2:52 pm EDT SW 10.4 10.00 Fair -- 71.0 54.0 55% NA NA 30.02 1016.5
11:52 am EDT 4.6 10.00 Overcast -- 61.0 54.0 78% 61 NA 30.05 1017.5
10:52 am EDT N 0.0 10.00 Overcast -- 57.0 53.1 87% NA NA 30.04 1017.1
9:52 am EDT N 0.0 10.00 Overcast -- 55.0 53.1 93% NA NA 30.03 1016.7
8:52 am EDT NE 4.6 9.00 Overcast -- 54.0 52.0 93% 53 NA 30.01 1016.1
7:52 am EDT NE 4.6 3.00 Fog/Mist -- 54.0 52.0 93% 53 NA 30.00 1015.7
5:52 am EDT N 0.0 0.25 Fog -- 48.0 46.0 93% NA NA 29.92 1013.2
4:52 am EDT N 0.0 3.00 Fog/Mist -- 46.0 44.1 93% NA NA 29.88 1011.8
3:52 am EDT N 0.0 0.50 Fog -- 48.0 46.0 93% NA NA 29.85 1010.7

Regional Weather Observation


Norwood, Norwood Memorial Airport, MA (KOWD)

Fog/Mist
62.0 F

Boston, Logan International Airport, MA (KBOS)

Light Drizzle Fog/Mist
56.0 F

Plymouth, Plymouth Municipal Airport, MA (KPYM)

Overcast
62.0 F

Taunton, Taunton Municipal Airport, MA (KTAN)

Overcast
62.0 F

Beverly, Beverly Municipal Airport, MA (KBVY)

Fog/Mist
54.0 F

Provincetown Municipal Airport, MA (KPVC)

Overcast
58.0 F

Advertise Here


Advertise Here